Location: C�mpuri de-Sus
(45.9500°N, 22.5500°E)
Time: 00:47:18
(UTC+00:00)

Cosmos 839 Rocket - Pass Details

Date: 30 May 2022
Orbit: 968 x 2085 km, 65.9° (Epoch: 06 July)

Event Time Altitude Azimuth Distance (km) Brightness Sun altitude
Rises 19:06:57 0° 319° (NW) 3,678 9.4 -8.4°
Reaches altitude 10° 19:10:56 10° 344° (NNW) 2,722 7.4 -8.9°
Maximum altitude 19:14:10 14° 17° (NNE) 2,454 6.5 -9.3°
Drops below altitude 10° 19:17:31 10° 49° (NE) 2,830 6.4 -9.7°
Sets 19:21:48 0° 73° (ENE) 3,928 6.9 -10.2°
